Вернуться в каталог

FENGYUN 1C DEB

АктивенPO
NORAD 30160·DEBRIS·🇨🇳 China

Запущен May 10, 1999 с Taiyuan Satellite Launch Center

Loading…

Ближайшие Пролёты (ближайшие 24 часа)

TLE

СвежийSource: Space-Track

Эпоха: Sep 14, 2026, 06:14 UTC

1 30160U 99025TR  26257.26027130  .00000427  00000-0  57051-3 0  9992
2 30160  98.8964 179.0999 0341081 152.9444   0.2800 13.43260177961129

Отслеживайте FENGYUN 1C DEB в реальном времени с AllMySat

Download on the App Store